Simultaneous Nadir Overpasses (SNOs) Predictions

Prediction of SNOs between GOES-16 and TERRA Satellite Orbit:

Table of predicted SNOs for the next 14.0 days since TLE Epoch: 1/18/2025
Index Date Time (GOES-16) GOES-16 Lat,Lon TERRA Lat,Lon Distance(km) Time Diff (sec)
1 01/19/2025 14:20:26 0.00, -75.22 -0.75, -71.63 408.00 80
2 01/20/2025 02:40:11 -0.00, -75.19 -0.28, -76.43 141.89 80
3 01/22/2025 02:18:58 -0.01, -75.23 0.70, -71.97 370.75 80
4 01/22/2025 14:38:34 0.01, -75.28 0.32, -76.74 165.78 80
5 01/24/2025 14:20:00 0.01, -75.32 -0.64, -72.26 347.43 80
6 01/25/2025 02:42:26 -0.01, -75.29 -0.36, -77.07 201.88 80
7 01/27/2025 02:21:11 -0.01, -75.33 0.57, -72.59 311.71 80
8 01/27/2025 14:43:27 0.02, -75.38 0.44, -77.36 224.82 80
9 01/29/2025 14:22:12 0.01, -75.43 -0.52, -72.88 289.58 80
10 01/30/2025 02:44:37 -0.02, -75.41 -0.50, -77.68 258.94 80
